Date,TemperatureHighF,TemperatureAvgF,TemperatureLowF,DewpointHighF,DewpointAvgF,DewpointLowF,HumidityHigh,HumidityAvg,HumidityLow,PressureMaxIn,PressureMinIn,WindSpeedMaxMPH,WindSpeedAvgMPH,GustSpeedMaxMPH,PrecipitationSumIn
2013-2-1,64,56,51,43,37,25,66,50,33,0.00,40.00,7,3,12,0.00
2013-2-2,56,51,45,48,41,30,97,69,44,0.00,40.00,10,4,12,0.00
2013-2-3,59,49,40,49,42,30,100,82,36,0.00,40.00,10,4,14,0.00
2013-2-4,60,53,45,48,40,22,77,63,26,0.00,40.00,6,2,9,0.00
2013-2-5,52,43,36,44,39,34,100,86,68,0.00,40.00,18,8,26,0.00
2013-2-6,53,46,39,40,34,22,81,63,44,0.00,40.00,16,8,25,0.00
2013-2-7,45,40,35,41,37,29,100,88,54,0.00,40.00,14,8,24,0.25
2013-2-8,51,42,34,36,31,21,95,67,44,0.00,40.00,16,8,24,0.02
2013-2-12,58,51,46,39,34,24,69,54,34,0.00,40.00,7,3,14,0.00
2013-2-13,62,57,50,42,38,28,60,48,28,0.00,40.00,8,5,16,0.00
2013-2-14,69,63,58,45,33,24,43,32,22,0.00,40.00,20,7,30,0.00
2013-2-15,68,61,55,39,33,22,49,35,24,0.00,40.00,7,2,14,0.00
2013-2-16,66,60,52,42,34,28,47,39,31,0.00,40.00,8,4,12,0.00
2013-2-17,59,53,47,38,34,25,63,49,37,0.00,40.00,10,5,17,0.00
2013-2-18,51,43,37,43,36,29,100,78,47,0.00,40.00,14,6,20,0.00
2013-2-19,40,36,33,36,32,25,100,86,62,0.00,40.00,23,13,32,0.18
2013-2-20,51,42,34,33,28,24,76,58,42,0.00,40.00,18,13,25,0.01
2013-2-21,55,46,37,34,28,22,69,51,33,0.00,40.00,28,13,36,0.00
2013-2-22,60,50,43,36,31,23,71,49,37,0.00,40.00,17,9,25,0.00
2013-2-23,51,44,38,42,30,15,100,60,37,0.00,40.00,23,14,34,0.00
2013-2-24,62,49,40,33,23,4,51,36,12,0.00,40.00,12,6,29,0.00
2013-2-25,61,50,40,38,28,11,65,45,19,0.00,40.00,15,7,25,0.00
2013-2-26,66,56,45,32,23,6,48,29,15,0.00,40.00,12,7,19,0.00
2013-2-27,64,57,50,39,29,3,60,37,12,0.00,40.00,17,8,24,0.00
2013-2-28,65,56,48,51,46,40,83,69,57,0.00,40.00,11,7,24,0.00